Regional Weather Roundup
Issued by NWS

Home | Current Version | Previous Version | Graphics & Text | Print | Product List | Glossary On
Versions: 1 2 3 4 5 6 7 8 9 10 11 12 13 14 15 16 17 18 19 20 21 22 23 24 25 26 27 28 29 30 31 32 33 34 35 36 37 38 39 40 41 42 43 44 45 46 47 48 49 50
000
ASUS43 KIND 161859
RWRIN

WEATHER ROUNDUP FOR INDIANA
NATIONAL WEATHER SERVICE INDIANAPOLIS IN
200 PM EST MON JAN 16 2017

NOTE: "FAIR" INDICATES FEW OR NO CLOUDS BELOW 12,000 FEET WITH NO
SIGNIFICANT WEATHER AND/OR OBSTRUCTIONS TO VISIBILITY.

* - STATION DOES NOT REPORT WEATHER SUCH AS PRECIPITATION OR FOG.

+ - STATION NOT QUALITY CONTROLLED BY THE NATIONAL WEATHER SERVICE.
    USE DATA WITH CAUTION...ESPECIALLY DEWPOINT AND RELATIVE
    HUMIDITY OBSERVATIONS.

INZ001>003-010>013-019-020-162000-
NORTHWEST INDIANA

CITY           SKY/WX    TMP DP  RH WIND       PRES   REMARKS
GARY /AIRPORT/ LGT RAIN  37  36  93 SE6       30.15F VSB 1
MONTICELLO +   FOG       37  36  96 E8        30.15F VSB 1/2

$$

LMZ046-743>745-162000-
SOUTHERN LAKE MICHIGAN

STATION/POSITION TIME  TEMP    WIND        PRES    WAVE
                       AIR SEA DIR/SP/G            HT
                 (UTC) (F)     (DEG/KT/KT) (MB)    (FT)
BURNS HARBOR     1840   36     140/  3/  8 1021.7F
MICHIGAN CITY    1830   35      90/  6/  7   N/A

$$

INZ004-005-014>016-021>024-162000-
NORTH CENTRAL INDIANA

CITY           SKY/WX    TMP DP  RH WIND       PRES   REMARKS
ELKHART        FOG       36  34  93 SE6       30.18F VSB 1
GOSHEN         FOG       36  33  89 SE6       30.18F VSB 3/4
PERU/GRISSOM   FOG       37  37 100 E7        30.15F VSB 1/2
SOUTH BEND     FOG       35  34  96 SE9       30.17F VSB 1   WCI  28

$$

INZ006>009-017-018-025>027-162000-
NORTHEAST INDIANA

CITY           SKY/WX    TMP DP  RH WIND       PRES   REMARKS
ANGOLA *+      CLOUDY    32  30  93 E6        30.20F VSB 3/4 WCI  26
FORT WAYNE     FOG       36  33  89 E7        30.20F VSB 1/2
KENDALLVILLE + FOG       33  33 100 E6        30.19F VSB 1/2 WCI  27

$$

INZ028-029-035-036-043>045-051>053-162000-
WEST CENTRAL INDIANA

CITY           SKY/WX    TMP DP  RH WIND       PRES   REMARKS
CRAWFORDSVL +  CLOUDY    42  42 100 E9        30.12F FOG
LAFAYETTE      FOG       40  40 100 E7        30.14F VSB 1/2
TERRE HAUTE    CLOUDY    48  46  93 SE9       30.11F

$$

INZ030>032-037>040-046>048-054>057-064-065-162000-
CENTRAL INDIANA

CITY           SKY/WX    TMP DP  RH WIND       PRES   REMARKS
COLUMBUS       CLOUDY    46  46 100 SE6       30.17F FOG
INDIANAPOLIS   CLOUDY    45  43  93 SE7       30.14F FOG
-EAGLE CREEK   CLOUDY    45  42  89 SE6       30.14F FOG
KOKOMO +       CLOUDY    38  37  97 E8        30.16F FOG
MT COMFORT *+  CLOUDY    45  43  93 SE8       30.16F
SHELBYVILLE    CLOUDY    48  45  89 SE5       30.15F FOG

$$

INZ033-034-041-042-049-050-058-059-162000-
EAST CENTRAL INDIANA

CITY           SKY/WX    TMP DP  RH WIND       PRES   REMARKS
MUNCIE         CLOUDY    47  42  83 SE5       30.16F

$$

INZ060-061-067>069-081>083-085>088-162000-
SOUTHWEST INDIANA

CITY           SKY/WX    TMP DP  RH WIND       PRES   REMARKS
EVANSVILLE     CLOUDY    53  50  89 E5        30.12F FOG
HUNTINGBURG *+ LGT RAIN  54  51  90 S8        30.14F

$$

INZ062-063-066-070>080-084-089>092-162000-
SOUTH CENTRAL AND SOUTHEAST INDIANA

CITY           SKY/WX    TMP DP  RH WIND       PRES   REMARKS
BLOOMINGTON    CLOUDY    47  45  93 SE8       30.13F FOG
MADISON *+     CLOUDY    48  46  93 E5        30.19F
SEYMOUR +      CLOUDY    50  48  93 E6        30.16F

$$





USA.gov is the U.S. government's official web portal to all federal, state and local government web resources and services.